Time,TemperatureF,DewpointF,PressureIn,WindDirection,WindDirectionDegrees,WindSpeedMPH,WindSpeedGustMPH,Humidity,HourlyPrecipIn,Conditions,Clouds,dailyrainin,SoftwareType,DateUTC
2013-03-17 00:03:00,21.0,11.0,30.09,SE,132,0.0,0.0,65,0.00,,,0.00,,2013-03-17 04:03:00,
2013-03-17 00:13:00,21.0,11.0,30.09,SE,132,0.0,0.0,65,0.00,,,0.00,,2013-03-17 04:13:00,
2013-03-17 00:23:00,20.0,11.0,30.09,NW,312,0.0,1.0,68,0.00,,,0.00,,2013-03-17 04:23:00,
2013-03-17 00:33:00,19.0,11.0,30.09,SE,132,0.0,1.0,71,0.00,,,0.00,,2013-03-17 04:33:00,
2013-03-17 00:43:00,19.0,11.0,30.09,SE,132,0.0,1.0,71,0.00,,,0.00,,2013-03-17 04:43:00,
2013-03-17 00:53:00,18.0,11.0,30.09,East,101,0.0,1.0,73,0.00,,,0.00,,2013-03-17 04:53:00,
2013-03-17 01:03:00,18.0,11.0,30.09,ENE,77,0.0,1.0,73,0.00,,,0.00,,2013-03-17 05:03:00,
2013-03-17 01:12:00,18.0,11.0,30.09,ENE,77,0.0,1.0,73,0.00,,,0.00,,2013-03-17 05:12:00,
2013-03-17 01:22:00,17.0,10.0,30.09,East,96,0.0,1.0,74,0.00,,,0.00,,2013-03-17 05:22:00,
2013-03-17 01:32:00,17.0,11.0,30.10,East,96,0.0,0.0,76,0.00,,,0.00,,2013-03-17 05:32:00,
2013-03-17 01:42:00,17.0,11.0,30.10,East,96,0.0,0.0,76,0.00,,,0.00,,2013-03-17 05:42:00,
2013-03-17 01:52:00,16.0,10.0,30.10,ENE,63,0.0,1.0,76,0.00,,,0.00,,2013-03-17 05:52:00,
2013-03-17 02:02:00,15.0,9.0,30.10,ENE,63,1.0,2.0,78,0.00,,,0.00,,2013-03-17 06:02:00,
2013-03-17 02:12:00,15.0,9.0,30.10,ENE,63,1.0,2.0,78,0.00,,,0.00,,2013-03-17 06:12:00,
2013-03-17 02:22:00,15.0,9.0,30.10,East,79,0.0,1.0,78,0.00,,,0.00,,2013-03-17 06:22:00,
2013-03-17 02:32:00,15.0,10.0,30.10,ENE,60,0.0,1.0,79,0.00,,,0.00,,2013-03-17 06:32:00,
2013-03-17 02:42:00,15.0,10.0,30.10,ENE,60,0.0,1.0,79,0.00,,,0.00,,2013-03-17 06:42:00,
2013-03-17 02:52:00,15.0,10.0,30.10,East,96,0.0,1.0,79,0.00,,,0.00,,2013-03-17 06:52:00,
2013-03-17 03:02:00,14.0,9.0,30.10,NE,36,0.0,1.0,79,0.00,,,0.00,,2013-03-17 07:02:00,
2013-03-17 03:12:00,14.0,9.0,30.10,NE,36,0.0,1.0,79,0.00,,,0.00,,2013-03-17 07:12:00,
2013-03-17 03:22:00,14.0,9.0,30.10,East,84,0.0,1.0,80,0.00,,,0.00,,2013-03-17 07:22:00,
2013-03-17 03:32:00,13.0,8.0,30.10,East,100,0.0,1.0,81,0.00,,,0.00,,2013-03-17 07:32:00,
2013-03-17 03:42:00,13.0,8.0,30.10,East,100,0.0,1.0,81,0.00,,,0.00,,2013-03-17 07:42:00,
2013-03-17 03:52:00,13.0,8.0,30.11,NE,53,0.0,1.0,81,0.00,,,0.00,,2013-03-17 07:52:00,
2013-03-17 04:03:00,13.0,8.0,30.11,NE,56,0.0,1.0,81,0.00,,,0.00,,2013-03-17 08:03:00,
2013-03-17 04:13:00,13.0,9.0,30.12,ENE,61,0.0,1.0,82,0.00,,,0.00,,2013-03-17 08:13:00,
2013-03-17 04:22:00,13.0,9.0,30.12,ENE,61,0.0,1.0,82,0.00,,,0.00,,2013-03-17 08:22:00,
2013-03-17 04:33:00,12.0,8.0,30.13,ESE,105,0.0,1.0,82,0.00,,,0.00,,2013-03-17 08:33:00,
2013-03-17 04:42:00,12.0,8.0,30.13,ESE,105,0.0,1.0,82,0.00,,,0.00,,2013-03-17 08:42:00,
2013-03-17 04:52:00,12.0,8.0,30.13,ESE,105,0.0,1.0,82,0.00,,,0.00,,2013-03-17 08:52:00,
2013-03-17 05:03:00,12.0,8.0,30.13,NE,52,0.0,1.0,82,0.00,,,0.00,,2013-03-17 09:03:00,
2013-03-17 05:13:00,12.0,8.0,30.13,NE,52,0.0,1.0,82,0.00,,,0.00,,2013-03-17 09:13:00,
2013-03-17 05:22:00,12.0,8.0,30.13,ESE,113,0.0,4.0,83,0.00,,,0.00,,2013-03-17 09:22:00,
2013-03-17 05:32:00,12.0,8.0,30.13,ESE,122,0.0,3.0,83,0.00,,,0.00,,2013-03-17 09:32:00,
2013-03-17 05:43:00,12.0,8.0,30.13,ESE,122,0.0,3.0,83,0.00,,,0.00,,2013-03-17 09:43:00,
2013-03-17 05:53:00,11.0,7.0,30.13,SE,129,0.0,8.0,82,0.00,,,0.00,,2013-03-17 09:53:00,
2013-03-17 08:02:00,13.0,7.0,30.15,ENE,73,0.0,1.0,75,0.00,,,0.00,,2013-03-17 12:02:00,
2013-03-17 08:12:00,13.0,7.0,30.15,ENE,73,0.0,1.0,75,0.00,,,0.00,,2013-03-17 12:12:00,
2013-03-17 08:22:00,14.0,8.0,30.16,NE,44,0.0,2.0,75,0.00,,,0.00,,2013-03-17 12:22:00,
2013-03-17 08:33:00,16.0,8.0,30.17,NNE,30,0.0,2.0,71,0.00,,,0.00,,2013-03-17 12:33:00,
2013-03-17 08:43:00,16.0,8.0,30.17,NNE,30,0.0,2.0,71,0.00,,,0.00,,2013-03-17 12:43:00,
2013-03-17 08:52:00,18.0,9.0,30.17,West,277,0.0,3.0,68,0.00,,,0.00,,2013-03-17 12:52:00,
2013-03-17 09:02:00,22.0,5.0,30.18,SW,232,1.0,16.0,48,0.00,,,0.00,,2013-03-17 13:02:00,
2013-03-17 09:13:00,22.0,5.0,30.18,SW,232,1.0,16.0,48,0.00,,,0.00,,2013-03-17 13:13:00,
2013-03-17 09:22:00,22.0,4.0,30.19,NW,321,7.0,13.0,45,0.00,,,0.00,,2013-03-17 13:22:00,
2013-03-17 09:32:00,22.0,5.0,30.20,NNE,15,5.0,14.0,47,0.00,,,0.00,,2013-03-17 13:32:00,
2013-03-17 09:42:00,22.0,5.0,30.20,NNE,15,5.0,14.0,47,0.00,,,0.00,,2013-03-17 13:42:00,
2013-03-17 09:52:00,23.0,6.0,30.20,NW,319,2.0,9.0,48,0.00,,,0.00,,2013-03-17 13:52:00,
2013-03-17 10:02:00,23.0,5.0,30.22,NNW,336,5.0,12.0,46,0.00,,,0.00,,2013-03-17 14:02:00,
2013-03-17 10:12:00,23.0,5.0,30.22,NNW,336,5.0,12.0,46,0.00,,,0.00,,2013-03-17 14:12:00,
2013-03-17 10:22:00,23.0,6.0,30.22,West,263,7.0,21.0,48,0.00,,,0.00,,2013-03-17 14:22:00,
2013-03-17 10:33:00,23.0,6.0,30.22,WSW,245,5.0,12.0,48,0.00,,,0.00,,2013-03-17 14:33:00,
2013-03-17 10:42:00,23.0,6.0,30.22,WSW,245,5.0,12.0,48,0.00,,,0.00,,2013-03-17 14:42:00,
2013-03-17 10:52:00,22.0,5.0,30.22,WNW,299,6.0,16.0,48,0.00,,,0.00,,2013-03-17 14:52:00,
2013-03-17 11:02:00,22.0,7.0,30.23,West,259,6.0,17.0,52,0.00,,,0.00,,2013-03-17 15:02:00,
2013-03-17 11:12:00,22.0,7.0,30.23,West,259,6.0,17.0,52,0.00,,,0.00,,2013-03-17 15:12:00,
2013-03-17 11:23:00,22.0,7.0,30.23,WNW,301,6.0,16.0,52,0.00,,,0.00,,2013-03-17 15:23:00,
2013-03-17 11:33:00,22.0,7.0,30.23,WNW,301,6.0,16.0,52,0.00,,,0.00,,2013-03-17 15:33:00,
2013-03-17 11:43:00,22.0,7.0,30.23,WNW,301,6.0,16.0,52,0.00,,,0.00,,2013-03-17 15:43:00,
2013-03-17 11:53:00,23.0,6.0,30.25,NNE,30,6.0,18.0,48,0.00,,,0.00,,2013-03-17 15:53:00,
2013-03-17 12:03:00,23.0,6.0,30.25,NNW,334,8.0,16.0,47,0.00,,,0.00,,2013-03-17 16:03:00,
2013-03-17 12:13:00,23.0,6.0,30.25,NNW,334,8.0,16.0,47,0.00,,,0.00,,2013-03-17 16:13:00,
2013-03-17 12:23:00,24.0,7.0,30.25,NNE,30,0.0,15.0,48,0.00,,,0.00,,2013-03-17 16:23:00,
2013-03-17 12:33:00,25.0,6.0,30.26,SW,219,6.0,24.0,44,0.00,,,0.00,,2013-03-17 16:33:00,
2013-03-17 12:43:00,25.0,6.0,30.26,SW,219,6.0,24.0,44,0.00,,,0.00,,2013-03-17 16:43:00,
2013-03-17 12:52:00,23.0,5.0,30.26,NW,308,4.0,18.0,45,0.00,,,0.00,,2013-03-17 16:52:00,
2013-03-17 13:03:00,23.0,4.0,30.26,NW,311,5.0,18.0,44,0.00,,,0.00,,2013-03-17 17:03:00,
2013-03-17 13:12:00,23.0,4.0,30.26,NW,311,5.0,18.0,44,0.00,,,0.00,,2013-03-17 17:12:00,
2013-03-17 13:22:00,23.0,5.0,30.26,NE,36,4.0,21.0,45,0.00,,,0.00,,2013-03-17 17:22:00,
2013-03-17 13:33:00,23.0,4.0,30.27,WSW,252,7.0,20.0,44,0.00,,,0.00,,2013-03-17 17:33:00,
2013-03-17 13:42:00,23.0,4.0,30.27,WSW,252,7.0,20.0,44,0.00,,,0.00,,2013-03-17 17:42:00,
2013-03-17 13:52:00,22.0,5.0,30.27,NNE,14,11.0,24.0,47,0.00,,,0.00,,2013-03-17 17:52:00,
2013-03-17 14:02:00,22.0,4.0,30.28,WNW,293,4.0,22.0,45,0.00,,,0.00,,2013-03-17 18:02:00,
2013-03-17 14:12:00,22.0,4.0,30.28,WNW,293,4.0,22.0,45,0.00,,,0.00,,2013-03-17 18:12:00,
2013-03-17 14:22:00,23.0,6.0,30.28,West,270,5.0,18.0,47,0.00,,,0.00,,2013-03-17 18:22:00,
2013-03-17 14:32:00,23.0,8.0,30.28,SW,229,4.0,21.0,51,0.00,,,0.00,,2013-03-17 18:32:00,
2013-03-17 14:42:00,23.0,8.0,30.28,SW,229,4.0,21.0,51,0.00,,,0.00,,2013-03-17 18:42:00,
2013-03-17 14:52:00,23.0,6.0,30.28,West,259,5.0,14.0,47,0.00,,,0.00,,2013-03-17 18:52:00,
2013-03-17 15:02:00,24.0,1.0,30.28,East,82,5.0,17.0,36,0.00,,,0.00,,2013-03-17 19:02:00,
2013-03-17 15:12:00,24.0,1.0,30.28,East,82,5.0,17.0,36,0.00,,,0.00,,2013-03-17 19:12:00,
2013-03-17 15:22:00,24.0,1.0,30.28,East,82,5.0,17.0,36,0.00,,,0.00,,2013-03-17 19:22:00,
2013-03-17 15:33:00,25.0,5.0,30.29,NW,323,5.0,22.0,41,0.00,,,0.00,,2013-03-17 19:33:00,
2013-03-17 15:42:00,25.0,5.0,30.29,NW,323,5.0,22.0,41,0.00,,,0.00,,2013-03-17 19:42:00,
2013-03-17 15:53:00,23.0,4.0,30.30,NNE,23,8.0,18.0,44,0.00,,,0.00,,2013-03-17 19:53:00,
2013-03-17 16:02:00,23.0,3.0,30.30,West,276,9.0,17.0,42,0.00,,,0.00,,2013-03-17 20:02:00,
2013-03-17 16:12:00,23.0,3.0,30.30,West,276,9.0,17.0,42,0.00,,,0.00,,2013-03-17 20:12:00,
2013-03-17 16:22:00,22.0,3.0,30.31,WNW,300,6.0,16.0,44,0.00,,,0.00,,2013-03-17 20:22:00,
2013-03-17 16:33:00,22.0,3.0,30.32,NW,325,4.0,19.0,44,0.00,,,0.00,,2013-03-17 20:33:00,
2013-03-17 16:42:00,22.0,3.0,30.32,NW,325,4.0,19.0,44,0.00,,,0.00,,2013-03-17 20:42:00,
2013-03-17 16:52:00,22.0,3.0,30.32,SE,143,2.0,14.0,43,0.00,,,0.00,,2013-03-17 20:52:00,
2013-03-17 17:03:00,22.0,2.0,30.33,NW,326,3.0,15.0,42,0.00,,,0.00,,2013-03-17 21:03:00,
2013-03-17 17:12:00,22.0,2.0,30.33,NW,326,3.0,15.0,42,0.00,,,0.00,,2013-03-17 21:12:00,
2013-03-17 17:22:00,23.0,2.0,30.33,SSE,167,2.0,13.0,40,0.00,,,0.00,,2013-03-17 21:22:00,
2013-03-17 17:33:00,24.0,0.0,30.33,NNW,335,5.0,26.0,35,0.00,,,0.00,,2013-03-17 21:33:00,
2013-03-17 17:43:00,24.0,0.0,30.33,NNW,335,5.0,26.0,35,0.00,,,0.00,,2013-03-17 21:43:00,
2013-03-17 17:52:00,24.0,2.0,30.35,NNE,19,3.0,17.0,38,0.00,,,0.00,,2013-03-17 21:52:00,
2013-03-17 18:03:00,24.0,0.0,30.35,NNW,329,6.0,13.0,35,0.00,,,0.00,,2013-03-17 22:03:00,
2013-03-17 18:13:00,22.0,-2.0,30.35,NW,323,4.0,17.0,34,0.00,,,0.00,,2013-03-17 22:13:00,
2013-03-17 18:23:00,22.0,-2.0,30.35,NW,323,4.0,17.0,34,0.00,,,0.00,,2013-03-17 22:23:00,
2013-03-17 18:33:00,21.0,-2.0,30.36,WSW,255,3.0,11.0,35,0.00,,,0.00,,2013-03-17 22:33:00,
2013-03-17 18:42:00,21.0,-2.0,30.36,WSW,255,3.0,11.0,35,0.00,,,0.00,,2013-03-17 22:42:00,
2013-03-17 18:52:00,21.0,-2.0,30.36,NW,305,5.0,18.0,35,0.00,,,0.00,,2013-03-17 22:52:00,
2013-03-17 19:03:00,21.0,-2.0,30.37,NW,308,5.0,21.0,35,0.00,,,0.00,,2013-03-17 23:03:00,
2013-03-17 19:12:00,21.0,-2.0,30.37,NW,308,5.0,21.0,35,0.00,,,0.00,,2013-03-17 23:12:00,
2013-03-17 19:22:00,21.0,-2.0,30.37,NW,308,5.0,21.0,35,0.00,,,0.00,,2013-03-17 23:22:00,
2013-03-17 19:33:00,20.0,-2.0,30.39,WSW,257,4.0,14.0,37,0.00,,,0.00,,2013-03-17 23:33:00,
2013-03-17 19:43:00,20.0,-2.0,30.39,WSW,257,4.0,14.0,37,0.00,,,0.00,,2013-03-17 23:43:00,
2013-03-17 19:53:00,20.0,-1.0,30.39,WNW,296,2.0,11.0,38,0.00,,,0.00,,2013-03-17 23:53:00,
2013-03-17 20:03:00,20.0,-3.0,30.41,WNW,293,5.0,13.0,36,0.00,,,0.00,,2013-03-18 00:03:00,
2013-03-17 20:13:00,20.0,-3.0,30.41,WNW,293,5.0,13.0,36,0.00,,,0.00,,2013-03-18 00:13:00,
2013-03-17 20:22:00,20.0,-1.0,30.41,NW,312,5.0,24.0,39,0.00,,,0.00,,2013-03-18 00:22:00,
2013-03-17 20:33:00,19.0,-2.0,30.42,NW,315,9.0,16.0,39,0.00,,,0.00,,2013-03-18 00:33:00,
2013-03-17 20:42:00,19.0,-2.0,30.42,NW,315,9.0,16.0,39,0.00,,,0.00,,2013-03-18 00:42:00,
2013-03-17 20:52:00,19.0,-2.0,30.42,WSW,240,6.0,16.0,38,0.00,,,0.00,,2013-03-18 00:52:00,
2013-03-17 21:02:00,19.0,-1.0,30.43,SSW,200,1.0,12.0,40,0.00,,,0.00,,2013-03-18 01:02:00,
2013-03-17 21:12:00,19.0,-1.0,30.43,SSW,200,1.0,12.0,40,0.00,,,0.00,,2013-03-18 01:12:00,
2013-03-17 21:22:00,18.0,-2.0,30.44,NW,321,4.0,15.0,41,0.00,,,0.00,,2013-03-18 01:22:00,
2013-03-17 21:32:00,18.0,-2.0,30.46,NW,319,6.0,16.0,41,0.00,,,0.00,,2013-03-18 01:32:00,
2013-03-17 21:42:00,18.0,-2.0,30.46,NW,319,6.0,16.0,41,0.00,,,0.00,,2013-03-18 01:42:00,
2013-03-17 21:52:00,18.0,-2.0,30.46,WNW,286,8.0,21.0,40,0.00,,,0.00,,2013-03-18 01:52:00,
2013-03-17 22:02:00,18.0,-2.0,30.48,NW,321,2.0,11.0,41,0.00,,,0.00,,2013-03-18 02:02:00,
2013-03-17 22:12:00,18.0,-2.0,30.48,NW,321,2.0,11.0,41,0.00,,,0.00,,2013-03-18 02:12:00,
2013-03-17 22:22:00,18.0,-2.0,30.47,SW,221,5.0,16.0,40,0.00,,,0.00,,2013-03-18 02:22:00,
2013-03-17 22:32:00,17.0,-3.0,30.48,WNW,288,3.0,16.0,40,0.00,,,0.00,,2013-03-18 02:32:00,
2013-03-17 22:42:00,17.0,-3.0,30.48,WNW,288,3.0,16.0,40,0.00,,,0.00,,2013-03-18 02:42:00,
2013-03-17 22:52:00,17.0,-2.0,30.48,WNW,293,4.0,10.0,42,0.00,,,0.00,,2013-03-18 02:52:00,
2013-03-17 23:03:00,16.0,-2.0,30.49,SE,130,0.0,9.0,45,0.00,,,0.00,,2013-03-18 03:03:00,
2013-03-17 23:12:00,16.0,-2.0,30.49,SE,130,0.0,9.0,45,0.00,,,0.00,,2013-03-18 03:12:00,
2013-03-17 23:22:00,16.0,-2.0,30.50,ESE,116,4.0,8.0,44,0.00,,,0.00,,2013-03-18 03:22:00,
2013-03-17 23:33:00,15.0,1.0,30.51,SE,133,0.0,4.0,52,0.00,,,0.00,,2013-03-18 03:33:00,
2013-03-17 23:42:00,15.0,1.0,30.51,SE,133,0.0,4.0,52,0.00,,,0.00,,2013-03-18 03:42:00,
2013-03-17 23:53:00,15.0,1.0,30.51,SE,133,0.0,4.0,52,0.00,,,0.00,,2013-03-18 03:53:00,